WetterOnline ( https://www.wetteronline.de )

Wetter aktuell Oberammergau

Aktuelles Wetter: Garmisch-Partenkirchen (719m)

6-stündlich | Neueste Meldungen
Ortszeit Temperatur Wetter
Di, 23.07. 20:00 22.3° C leicht bewölkt
Di, 23.07. 14:00 22.1° C leicht bewölkt
Di, 23.07. 8:00 16.0° C bedeckt
Di, 23.07. 2:00 15.8° C bedeckt
Mo, 22.07. 20:00 18.4° C bedeckt
Mo, 22.07. 14:00 19.3° C leichter Regen
Mo, 22.07. 8:00 15.7° C bewölkt
Mo, 22.07. 2:00 15.5° C leichter Regen
Ortszeit Temperatur Wetter
Di, 23.07. 22:30 18.0° C bewölkt
Di, 23.07. 22:20 18.0° C bewölkt
Di, 23.07. 22:10 17.7° C bedeckt
Di, 23.07. 22:00 18.3° C wolkig
Di, 23.07. 21:50 18.3° C wolkig
Di, 23.07. 21:40 18.5° C bewölkt
Di, 23.07. 21:30 18.5° C wolkig
Di, 23.07. 21:00 19.5° C wolkig
Di, 23.07. 20:30 20.8° C wolkig
Di, 23.07. 20:00 22.3° C leicht bewölkt
Di, 23.07. 19:30 23.1° C wolkig
Ortszeit Relative Feuchte Sichtweite
Di, 23.07. 20:00 65% >70 km
Di, 23.07. 14:00 66% >70 km
Di, 23.07. 8:00 93% 55 km
Di, 23.07. 2:00 96% 18 km
Mo, 22.07. 20:00 93% 60 km
Mo, 22.07. 14:00 88% 30 km
Mo, 22.07. 8:00 96% 30 km
Mo, 22.07. 2:00 97% 14 km
Ortszeit Relative Feuchte Sichtweite
Di, 23.07. 22:30 87% 60 km
Di, 23.07. 22:20 87% -
Di, 23.07. 22:10 87% -
Di, 23.07. 22:00 85% 60 km
Di, 23.07. 21:50 85% -
Di, 23.07. 21:40 84% -
Di, 23.07. 21:30 86% 50 km
Di, 23.07. 21:00 82% 55 km
Di, 23.07. 20:30 77% 60 km
Di, 23.07. 20:00 65% >70 km
Di, 23.07. 19:30 59% >70 km
Ortszeit Niederschlagsmenge Niederschlagsart
Di, 23.07. 20:00 0.1 l/m2 in 12 Std. -
Di, 23.07. 14:00 0.1 l/m2 in 6 Std. Regen
Di, 23.07. 8:00 0.4 l/m2 in 12 Std. -
Di, 23.07. 2:00 0.4 l/m2 in 6 Std. Regen
Mo, 22.07. 20:00 2 l/m2 in 12 Std. Regen
Mo, 22.07. 14:00 0.3 l/m2 in 6 Std. Regen
Mo, 22.07. 8:00 12 l/m2 in 12 Std. Regen
Mo, 22.07. 2:00 11 l/m2 in 6 Std. Regen
Ortszeit Niederschlagsmenge Niederschlagsart
Di, 23.07. 22:30 0.0 l/m2 in 30 Min -
Di, 23.07. 22:20 keine Meldung -
Di, 23.07. 22:10 keine Meldung -
Di, 23.07. 22:00 0.0 l/m2 in 1 Std. -
Di, 23.07. 21:50 keine Meldung -
Di, 23.07. 21:40 keine Meldung -
Di, 23.07. 21:30 0.0 l/m2 in 30 Min -
Di, 23.07. 21:00 0.0 l/m2 in 1 Std. -
Di, 23.07. 20:30 0.0 l/m2 in 30 Min -
Di, 23.07. 20:00 0.0 l/m2 in 1 Std. -
Di, 23.07. 19:30 0.0 l/m2 in 30 Min -
Ortszeit Stärke Spitze Richtung
km/h Bft. km/h Grad Sektor
Di, 23.07. 20:00 0 0 32 - -
Di, 23.07. 14:00 17 3 31 40° NO
Di, 23.07. 8:00 4 1 11 210° SW
Di, 23.07. 2:00 0 0 11 - -
Mo, 22.07. 20:00 4 1 29 230° SW
Mo, 22.07. 14:00 9 2 31 90° O
Mo, 22.07. 8:00 4 1 7 230° SW
Mo, 22.07. 2:00 0 0 18 - -
Ortszeit Stärke Spitze Richtung
km/h Bft. km/h Grad Sektor
Di, 23.07. 22:30 0 0 7 - -
Di, 23.07. 22:20 2 1 - 230° SW
Di, 23.07. 22:10 4 1 - 190° S
Di, 23.07. 22:00 4 1 7 280° W
Di, 23.07. 21:50 4 1 - 280° W
Di, 23.07. 21:40 4 1 - 150° SO
Di, 23.07. 21:30 2 1 6 290° W
Di, 23.07. 21:00 2 1 7 260° W
Di, 23.07. 20:30 2 1 6 240° SW
Di, 23.07. 20:00 0 0 14 - -
Di, 23.07. 19:30 6 1 15 50° NO
Ortszeit Untergrenze Bedeckung Gattung
total tief tief mittel hoch
Di, 23.07. 20:00 9000 m 5/8 0/8 - - -
Di, 23.07. 14:00 1290 m 4/8 1/8 - - -
Di, 23.07. 8:00 810 m 8/8 8/8 - - -
Di, 23.07. 2:00 1500 m 8/8 8/8 - - -
Mo, 22.07. 20:00 420 m 8/8 8/8 - - -
Mo, 22.07. 14:00 1020 m 8/8 7/8 - - -
Mo, 22.07. 8:00 60 m 8/8 6/8 - - -
Mo, 22.07. 2:00 90 m 8/8 6/8 - - -
Ortszeit Bedeckungsgrad in Achtel und Wolkenuntergrenze
Di, 23.07. 22:30 6(2400m) 8(3000m) 8(9000m)
Di, 23.07. 22:20 6(2400m) 8(3000m) 8(9000m)
Di, 23.07. 22:10 8
Di, 23.07. 22:00 3(2400m) 6(3000m) 8(8700m)
Di, 23.07. 21:50 3(2400m) 6(3000m) 8(8700m)
Di, 23.07. 21:40 7
Di, 23.07. 21:30 1(2400m) 7(8400m)
Di, 23.07. 21:00 2(1800m) 7(8700m) 8(9000m)
Di, 23.07. 20:30 5(3300m) 7(9000m) 7(9000m)
Di, 23.07. 20:00 5(9000m)
Di, 23.07. 19:30 3(1440m) 4(2700m) 5(9000m)
Ortszeit Luftdruck NN (hPa) Tendenz (hPa in 3 Std.)
Di, 23.07. 20:00 1017 + 0,1
Di, 23.07. 14:00 1017 - 1,1
Di, 23.07. 8:00 1021 + 0,1
Di, 23.07. 2:00 1021 - 0,2
Mo, 22.07. 20:00 1019 + 1,2
Mo, 22.07. 14:00 1017 + 0,4
Mo, 22.07. 8:00 1017 + 1,3
Mo, 22.07. 2:00 1015 + 0,6
Ortszeit Luftdruck NN (hPa) Tendenz (hPa in 3 Std.)
Di, 23.07. 22:30 1018 + 0,4
Di, 23.07. 22:20 1018 keine Meldung
Di, 23.07. 22:10 1018 keine Meldung
Di, 23.07. 22:00 1018 + 0,6
Di, 23.07. 21:50 1018 keine Meldung
Di, 23.07. 21:40 1018 keine Meldung
Di, 23.07. 21:30 1018 + 0,6
Di, 23.07. 21:00 1017 + 0,4
Di, 23.07. 20:30 1017 + 0,3
Di, 23.07. 20:00 1017 + 0,1
Di, 23.07. 19:30 1016 0,0
Ortszeit Schneehöhe (cm)
Di, 23.07. 20:00 0
Di, 23.07. 14:00 0
Di, 23.07. 8:00 0
Di, 23.07. 2:00 0
Mo, 22.07. 20:00 0
Mo, 22.07. 14:00 0
Mo, 22.07. 8:00 0
Mo, 22.07. 2:00 0
Ortszeit Schneehöhe (cm)
Di, 23.07. 22:30 0
Di, 23.07. 22:20 0
Di, 23.07. 22:10 -
Di, 23.07. 22:00 0
Di, 23.07. 21:50 0
Di, 23.07. 21:40 -
Di, 23.07. 21:30 0
Di, 23.07. 21:00 0
Di, 23.07. 20:30 0
Di, 23.07. 20:00 0
Di, 23.07. 19:30 0
Link zu dieser Seite / Seite empfehlen

Das Wetter in ...